Showing default

COSMOS 2581, 62902

Orbit data source: Space-Track

COSMOS 2581, 62902 is a payload satellite owned by MO RF (CIS) in LEO that was launched on Wed, 05 Feb 2025 UTC via a SOYUZ-2-1V launch vehicle from the Plesetsk Missile And Space Complex (PKMTR). Payload-class satellites include a variety of spacecraft equipped with specific instruments for various scientific and technological missions. These include communications satellites like Starlink; space stations such as the ISS; scientific satellites like the Hubble; Earth observation satellites from companies like Planet Labs, Umbra, and HawkEye 360; GPS; miniature CubeSats for education and research; and military/defense satellites.

Loading next visibility...
Identifier
62902, 2025-026A
Orbit
LEO
Country
Flag of CISCIS
Related business
Manufacturer
VNIIEM
Mission
Operational Defense Imaging
Bus & Motor
EMKA, Unknown motor
Mass
~500 kg wet, 500 kg dry
Launch date (UTC)
2025-02-05 (1 year ago)
Launch vehicle
SOYUZ-2-1V
Launch site
Plesetsk Missile And Space Complex (PKMTR)
Object type
Payload
Rocket body
Debris
Shape & HBR
Cyl + 2 Pan, 1.3 m
Radar Cross Section
3.727 m², Large (>1 m²)

Expand to show TLE details & history
Last TLE update: 20 hours ago

TLE from 20 hours ago
0 COSMOS 2581
1 62902U 25026A   26033.74146757  .00001998  00000-0  18238-3 0  9991
2 62902  81.9940 211.6203 0010955 136.9713 223.2365 14.94587161 54139
Epoch: 2026-02-02T17:47Z
TLE epoch observation values (Epoch: 2026-02-02T17:47:42.798Z)
Latitude
-0.00002°
Longitude
171.75957°
Altitude
592.254 km
Speed
7.561 km/s
True Right ascension
14h 06m 28s
True Declination
0° 00' 00"
Sunlit
Object was in daylight at epoch
Visualization orbit readout
Latitude
Unknown
Longitude
Unknown
Altitude
Unknown
Speed
Unknown
Apparent Right ascension
Unknown
Apparent Declination
Unknown
Sunlit
N/A
Visualization observer readout
Local Sidereal Time
15:31:31
Azimuth
Unknown
Elevation
Unknown
Doppler factor
Unknown
Orbital elements
Apogee altitude
588.304 km
Perigee altitude
573.057 km
Semi-major axis
6,958.818 km
Eccentricity
0.0011
Inclination
81.994°
RAAN
211.6203°
Arg. of periapsis
136.9713°
True anomaly
223.15059°
Mean anomaly
223.2365°
Eccentric anomaly
223.19354°
Mean motion
3.73887 °/min
Orbital period
96.29 mins
BSTAR
0.00018238
Loading maneuver chart data...
Computing Atmospheric mass density...
Loading historical data...
Loading historical data...
Loading historical data...
Loading historical data...
Loading historical data...
Loading historical data...
Loading historical data...

Documentation

Showing up to 5 results
|